Miscellaneous Local Product
Issued by NWS North Platte, NE

Home | Current Version | Previous Version | Graphics & Text | Print | Product List | Glossary On
Versions: 1 2 3 4 5 6 7 8 9 10 11 12 13 14 15 16 17 18 19 20 21 22 23 24 25 26 27 28 29 30 31 32 33 34 35 36 37 38 39 40 41 42 43 44 45 46 47 48 49 50
000
AXUS43 KLBF 040810
MISLBF


WESTERN AND NORTH CENTRAL NEBRASKA HOURLY WEATHER ROUNDUP
NATIONAL WEATHER SERVICE NORTH PLATTE NE
300 AM CDT MON MAY 04 2015

***STATIONS NOT REPORTING VARIABLES SUCH AS SKY/WEATHER OR
PRESSURE ARE PROVIDED BY THE NEBRASKA DEPARTMENT OF
ROADS...RAWS...AND APRS NETWORKS...AND ARE NOT UNDER
NATIONAL WEATHER SERVICE QUALITY CONTROL***

...OBSERVATIONS IN AND NEAR THE EASTERN PANHANDLE OF NEBRASKA...

CITY           SKY/WX    TMP DP  RH WIND       PRES   REMARKS
PINE RIDGE     MOCLDY    50  31  48 E10       30.09R
CHADRON        CLOUDY    53  34  48 E7        30.08R
ALLIANCE       CLOUDY    50  38  63 SE5       30.08R
SIDNEY         CLOUDY    51  39  63 E8        30.09S
WHITECLAY        N/A     52  28  40 E12         N/A
CRESCENT LAKE    N/A     52  33  48 E12G18      N/A
BIG SPRINGS      N/A     57  38  49 E10         N/A
$$

...OBSERVATIONS IN NORTH CENTRAL NEBRASKA...

CITY           SKY/WX    TMP DP  RH WIND       PRES   REMARKS
VALENTINE      PTCLDY    48  31  51 NE7       30.10R
THEDFORD       CLOUDY    55  35  47 NE6       30.08F
AINSWORTH      PTCLDY    50  31  48 NE8       30.09S
O`NEILL        CLOUDY    54  37  54 N8        30.07S
ORD            MOCLDY    57  37  47 NE10      30.00F
BROKEN BOW     PTCLDY    58  37  45 NE20      30.01S
BROWNLEE         N/A     54  28  36 NE6         N/A
VALENTINE NWR    N/A     53  30  42 NE7G14      N/A
SPRINGVIEW       N/A     54  31  42 NE3         N/A
HALSEY           N/A     55  33  43 NE6         N/A
BREWSTER         N/A     58  36  43 NE13        N/A
ROSE             N/A     55  36  48 N14         N/A
NEWPORT          N/A     51  31  47 CALM        N/A
SARGENT          N/A     57  38  49 CALM        N/A
COMSTOCK         N/A     63  41  44 NE14        N/A
EWING            N/A     57  37  48 NE6         N/A
$$

...OBSERVATIONS IN SOUTHWEST NEBRASKA AND FAR NORTHEAST COLORADO...

CITY           SKY/WX    TMP DP  RH WIND       PRES   REMARKS
WRAY           FAIR      55  40  55 NE9       30.06S
IMPERIAL       MOCLDY    53  38  56 NE7       30.07S
OGALLALA       CLOUDY    56  35  45 E15       30.07R
NORTH PLATTE   MOCLDY    53  37  54 NE6       30.04R
MCCOOK         CLOUDY    61  38  42 NE12      30.02F
LEXINGTON      CLOUDY    59  38  46 NE14      30.00R
PAXTON           N/A     56  40  54 NE5         N/A
SUTHERLAND       N/A     51  35  55 NE5         N/A
GOTHENBURG       N/A     58  36  43 N8          N/A
CALLAWAY         N/A     55  41  59 NE9         N/A
$$

...NORTH PLATTE AREA...

CITY           SKY/WX    TMP DP  RH WIND       PRES   REMARKS
AIRPORT        MOCLDY    53  37  54 NE6       30.04R
DOWNTOWN         N/A     54  38  55 CALM        N/A
$$

...SOME WEATHER OBSERVATIONS FROM AROUND THE REGION...

CITY           SKY/WX    TMP DP  RH WIND       PRES   REMARKS
DENVER         CLOUDY    50  46  86 E7        30.09S
LARAMIE        CLOUDY    44  40  85 SE12      30.10F
CHEYENNE       CLOUDY    47  42  83 SE10      30.12R
SCOTTSBLUFF    MOCLDY    53  39  59 E8        30.08R
RAPID CITY     CLOUDY    48  35  60 W3        30.11R
PIERRE         MOCLDY    44  24  45 NE5       30.10R
WINNER         FAIR      50  27  40 E5        30.11R
SIOUX FALLS    CLEAR     49  31  49 N5        30.06R
OMAHA          CLOUDY    61  55  81 N5        29.94R
GRAND ISLAND   CLOUDY    61  40  45 NE16G24   29.96R
KANSAS CITY    CLOUDY    69  56  62 S14       29.93S
WICHITA        CLOUDY    63  53  70 S10       29.94R
HAYS           CLOUDY    63  48  59 W9        29.93F
LIBERAL        CLOUDY    61  54  77 SE6       29.98F
GOODLAND       CLOUDY    56  45  66 NE14      30.02S
$$



USA.gov is the U.S. government's official web portal to all federal, state and local government web resources and services.